• In Hungary
  • List of Countries
  • For 7 days
  • Water Temperature
  • Satellite Maps
  • Weather Map
  • News
  • Weather Widgets
  • user-avatar
    Login

    Hourly Weather Konispol

    Today, 21 January, Sunday

    Time Temperature Precipitation Wind Pressure Humidity
    00:00 +8°C° 0 mm 2 mps 730 mmHg 96%
    01:00 +8°C° 0 mm 2 mps 730 mmHg 96%
    02:00 +7°C° 0 mm 2 mps 729 mmHg 95%
    03:00 +7°C° 0 mm 2 mps 729 mmHg 95%
    04:00 +7°C° 0 mm 2 mps 729 mmHg 94%
    05:00 +7°C° 0 mm 2 mps 728 mmHg 93%
    06:00 +7°C° 0 mm 2 mps 728 mmHg 93%
    07:00 +5°C° 0 mm 3 mps 728 mmHg 91%
    08:00 +7°C° 0.1 mm 3 mps 727 mmHg 89%
    09:00 +9°C° 0.1 mm 3 mps 727 mmHg 87%
    10:00 +10°C° 0.1 mm 3 mps 727 mmHg 86%
    11:00 +10°C° 0.2 mm 4 mps 726 mmHg 86%
    12:00 +10°C° 0.2 mm 4 mps 726 mmHg 86%
    13:00 +10°C° 0.2 mm 4 mps 725 mmHg 86%
    14:00 +10°C° 0.4 mm 4 mps 725 mmHg 88%
    15:00 +10°C° 0.4 mm 3 mps 724 mmHg 90%
    16:00 +9°C° 0.4 mm 3 mps 724 mmHg 92%
    17:00 +9°C° 1.8 mm 3 mps 724 mmHg 94%
    18:00 +9°C° 1.8 mm 3 mps 724 mmHg 95%
    19:00 +8°C° 1.8 mm 3 mps 723 mmHg 97%
    20:00 +7°C° 1.5 mm 4 mps 723 mmHg 96%
    21:00 +7°C° 1.5 mm 4 mps 723 mmHg 95%
    22:00 +7°C° 1.5 mm 5 mps 723 mmHg 95%
    23:00 +7°C° 0.1 mm 6 mps 724 mmHg 94%

    Tomorrow, 22 January, Monday

    Time Temperature Precipitation Wind Pressure Humidity
    00:00 +5°C° 0.1 mm 6 mps 724 mmHg 94%
    01:00 +5°C° 0.1 mm 7 mps 724 mmHg 93%
    02:00 +5°C° 0.1 mm 7 mps 724 mmHg 92%
    03:00 +4°C° 0.1 mm 8 mps 724 mmHg 91%
    04:00 +3°C° 0.1 mm 9 mps 725 mmHg 90%
    05:00 +2°C° 0 mm 8 mps 725 mmHg 89%
    06:00 +2°C° 0 mm 8 mps 726 mmHg 89%
    07:00 +2°C° 0 mm 7 mps 726 mmHg 89%
    08:00 +4°C° 0 mm 7 mps 727 mmHg 82%
    09:00 +5°C° 0 mm 7 mps 727 mmHg 75%
    10:00 +6°C° 0 mm 7 mps 728 mmHg 68%
    11:00 +6°C° 0 mm 7 mps 728 mmHg 64%
    12:00 +6°C° 0 mm 7 mps 728 mmHg 60%
    13:00 +7°C° 0 mm 8 mps 729 mmHg 55%
    14:00 +6°C° 0 mm 7 mps 729 mmHg 58%
    15:00 +7°C° 0 mm 6 mps 729 mmHg 60%
    16:00 +5°C° 0 mm 6 mps 730 mmHg 63%
    17:00 +5°C° 0 mm 5 mps 730 mmHg 66%
    18:00 +3°C° 0 mm 5 mps 731 mmHg 69%
    19:00 +2°C° 0 mm 5 mps 731 mmHg 73%
    20:00 +3°C° 0 mm 4 mps 731 mmHg 73%
    21:00 +1°C° 0 mm 4 mps 732 mmHg 73%
    22:00 +1°C° 0 mm 4 mps 732 mmHg 72%
    23:00 +2°C° 0 mm 3 mps 732 mmHg 71%

    Day after tomorrow, 23 January, Tuesday

    Time Temperature Precipitation Wind Pressure Humidity
    00:00 +2°C° 0 mm 3 mps 733 mmHg 70%
    01:00 +2°C° 0 mm 3 mps 733 mmHg 69%
    02:00 +2°C° 0 mm 3 mps 733 mmHg 67%
    03:00 +2°C° 0 mm 3 mps 733 mmHg 66%
    04:00 +3°C° 0 mm 2 mps 733 mmHg 64%
    05:00 +3°C° 0 mm 2 mps 733 mmHg 62%
    06:00 +3°C° 0 mm 2 mps 734 mmHg 60%
    07:00 +3°C° 0 mm 2 mps 734 mmHg 59%
    08:00 +5°C° 0 mm 2 mps 735 mmHg 55%
    09:00 +6°C° 0 mm 2 mps 735 mmHg 51%
    10:00 +8°C° 0 mm 2 mps 736 mmHg 47%
    11:00 +9°C° 0 mm 1 mps 736 mmHg 46%
    12:00 +10°C° 0 mm 1 mps 736 mmHg 45%
    13:00 +10°C° 0 mm 1 mps 736 mmHg 44%
    14:00 +10°C° 0 mm 1 mps 736 mmHg 48%
    15:00 +9°C° 0 mm 1 mps 736 mmHg 53%
    16:00 +9°C° 0 mm 1 mps 736 mmHg 57%
    17:00 +8°C° 0 mm 1 mps 737 mmHg 59%
    18:00 +5°C° 0 mm 2 mps 737 mmHg 62%
    19:00 +4°C° 0 mm 2 mps 738 mmHg 64%
    20:00 +4°C° 0 mm 2 mps 738 mmHg 64%
    21:00 +3°C° 0 mm 2 mps 738 mmHg 64%
    22:00 +2°C° 0 mm 3 mps 739 mmHg 64%
    23:00 +2°C° 0 mm 3 mps 739 mmHg 63%

    24 January, Wednesday

    Time Temperature Precipitation Wind Pressure Humidity
    00:00 +2°C° 0 mm 3 mps 739 mmHg 62%
    01:00 +2°C° 0 mm 3 mps 739 mmHg 61%
    02:00 +1°C° 0 mm 3 mps 740 mmHg 61%
    03:00 +1°C° 0 mm 3 mps 740 mmHg 62%
    04:00 +1°C° 0 mm 3 mps 740 mmHg 62%
    05:00 +1°C° 0 mm 3 mps 740 mmHg 62%
    06:00 +1°C° 0 mm 3 mps 741 mmHg 62%
    07:00 +1°C° 0 mm 3 mps 741 mmHg 61%
    08:00 +2°C° 0 mm 3 mps 742 mmHg 55%
    09:00 +4°C° 0 mm 3 mps 742 mmHg 49%
    10:00 +7°C° 0 mm 3 mps 743 mmHg 43%
    11:00 +7°C° 0 mm 2 mps 743 mmHg 41%
    12:00 +8°C° 0 mm 2 mps 743 mmHg 39%
    13:00 +10°C° 0 mm 1 mps 743 mmHg 37%
    14:00 +9°C° 0 mm 1 mps 743 mmHg 42%
    15:00 +9°C° 0 mm 1 mps 743 mmHg 47%
    16:00 +8°C° 0 mm 1 mps 743 mmHg 52%
    17:00 +7°C° 0 mm 1 mps 743 mmHg 54%
    18:00 +5°C° 0 mm 2 mps 743 mmHg 57%
    19:00 +3°C° 0 mm 2 mps 743 mmHg 60%
    20:00 +3°C° 0 mm 2 mps 744 mmHg 60%
    21:00 +3°C° 0 mm 2 mps 744 mmHg 60%
    22:00 +2°C° 0 mm 2 mps 744 mmHg 61%
    23:00 +2°C° 0 mm 2 mps 744 mmHg 60%

    25 January, Thursday

    Time Temperature Precipitation Wind Pressure Humidity
    00:00 +2°C° 0 mm 2 mps 744 mmHg 59%
    01:00 +2°C° 0 mm 2 mps 744 mmHg 58%
    02:00 +2°C° 0 mm 2 mps 743 mmHg 57%
    03:00 +2°C° 0 mm 2 mps 743 mmHg 55%
    04:00 +2°C° 0 mm 2 mps 743 mmHg 54%
    05:00 +2°C° 0 mm 2 mps 743 mmHg 52%
    06:00 +2°C° 0 mm 2 mps 743 mmHg 50%
    07:00 +2°C° 0 mm 2 mps 743 mmHg 49%
    08:00 +4°C° 0 mm 2 mps 743 mmHg 44%
    09:00 +6°C° 0 mm 2 mps 743 mmHg 40%
    10:00 +9°C° 0 mm 1 mps 743 mmHg 35%
    11:00 +10°C° 0 mm 1 mps 743 mmHg 36%
    12:00 +11°C° 0 mm 1 mps 742 mmHg 36%
    13:00 +12°C° 0 mm 1 mps 742 mmHg 36%
    14:00 +11°C° 0 mm 1 mps 742 mmHg 43%
    15:00 +10°C° 0 mm 1 mps 741 mmHg 50%
    16:00 +9°C° 0 mm 1 mps 741 mmHg 57%
    17:00 +8°C° 0 mm 1 mps 741 mmHg 60%
    18:00 +7°C° 0 mm 1 mps 741 mmHg 63%
    19:00 +5°C° 0 mm 1 mps 741 mmHg 66%
    20:00 +5°C° 0 mm 1 mps 741 mmHg 65%
    21:00 +5°C° 0 mm 1 mps 741 mmHg 64%
    22:00 +5°C° 0 mm 1 mps 741 mmHg 63%
    23:00 +5°C° 0 mm 1 mps 741 mmHg 62%

    26 January, Friday

    Time Temperature Precipitation Wind Pressure Humidity
    00:00 +5°C° 0 mm 1 mps 740 mmHg 61%
    01:00 +4°C° 0 mm 1 mps 740 mmHg 59%
    02:00 +4°C° 0 mm 1 mps 740 mmHg 59%
    03:00 +4°C° 0 mm 1 mps 739 mmHg 58%
    04:00 +4°C° 0 mm 1 mps 739 mmHg 57%
    05:00 +4°C° 0 mm 1 mps 739 mmHg 56%
    06:00 +4°C° 0 mm 1 mps 739 mmHg 56%
    07:00 +4°C° 0 mm 1 mps 739 mmHg 55%
    08:00 +6°C° 0 mm 1 mps 739 mmHg 52%
    09:00 +8°C° 0 mm 1 mps 739 mmHg 48%
    10:00 +10°C° 0 mm 1 mps 739 mmHg 45%
    11:00 +11°C° 0 mm 1 mps 739 mmHg 45%
    12:00 +10°C° 0 mm 2 mps 738 mmHg 45%
    13:00 +12°C° 0 mm 2 mps 738 mmHg 45%
    14:00 +10°C° 0 mm 2 mps 738 mmHg 51%
    15:00 +10°C° 0 mm 2 mps 738 mmHg 57%
    16:00 +9°C° 0 mm 2 mps 737 mmHg 63%
    17:00 +8°C° 0 mm 2 mps 738 mmHg 67%
    18:00 +6°C° 0 mm 2 mps 738 mmHg 71%
    19:00 +5°C° 0 mm 2 mps 738 mmHg 75%
    20:00 +5°C° 0 mm 2 mps 738 mmHg 75%
    21:00 +4°C° 0 mm 3 mps 738 mmHg 75%
    22:00 +3°C° 0 mm 3 mps 739 mmHg 75%
    23:00 +3°C° 0 mm 3 mps 739 mmHg 75%
    Show more